[[{"header":{"parameterUnit":"m.s-1","parameterCategory":1,"la1":30.2991,"la2":30.254,"lo1":-89.0895,"lo2":-89.0444,"dy":0.0017,"dx":0.0017,"nx":28,"ny":28,"refTime":"2025-07-28T03:00:00:Z","depth":0,"parameterNumber":2,"parameterNumberName":"U-component_of_WINDS"},"data":[0,0,0,0,0,0,0,0,0,0,0,0,0,0,0,0,0,0,0,0,0,0,0,0,0,0,0,0,0,0,0,0,0,0,0,0,0,0,0,0,0,0,0,0,0,0,0,0,0,0,0,0,0,0,0,0,0,0,1.0505,1.0505,0,1.05,1.05,1.05,1.0467,1.0466,1.0465,1.0464,1.046,1.046,1.0461,0,0,0,0,0,0,0,0,0,0,0,0,0,1.0488,1.0488,1.0505,1.0505,1.0505,1.05,1.05,1.05,1.0467,1.0466,1.0465,1.0464,1.046,1.046,1.0461,0,0,0,0,0,0,0,0,0,0,0,0,0,1.0491,1.0489,1.0505,1.0488,1.0486,1.05,1.05,1.05,1.0467,1.0466,1.0465,1.0464,1.0459,1.046,1.0461,1.0491,0,0,1.0464,1.0464,0,0,0,0,0,0,0,0,1.049,1.0491,1.0491,1.0489,1.0487,1.0483,1.0492,1.0497,1.0468,1.0475,1.0464,1.0463,1.0469,1.0469,1.047,1.0491,1.0491,1.0464,1.0465,1.0465,1.0465,0,0,0,0,0,0,0,1.049,1.0491,1.0503,1.0491,1.0489,1.0481,1.048,1.0493,1.0478,1.0474,1.0471,1.0471,1.0467,1.047,1.047,1.0491,1.0464,1.0465,1.0466,1.0466,1.0539,1.054,0,0,0,0,0,0,1.0492,1.0491,1.0503,1.0503,1.0486,1.0482,1.0481,1.0486,1.0478,1.0476,1.0472,1.047,1.0469,1.0469,1.047,1.0506,1.0465,1.0466,1.0467,1.0537,1.0539,1.054,0,0,0,0,0,0,1.0492,1.0494,1.0504,1.0497,1.0497,1.0484,1.0489,1.0486,1.0488,1.0477,1.0474,1.0477,1.0468,1.0468,1.0487,1.0505,1.0466,1.0467,1.0536,1.0538,1.054,1.0578,0,0,0,0,0,0,1.0492,1.0494,1.0505,1.0497,1.0498,1.052,1.049,1.0487,1.049,1.0486,1.0481,1.0479,1.0467,1.0486,1.0488,1.0506,1.0468,1.0534,1.0536,1.0539,1.0575,1.0581,1.0587,0,0,0,0,0,1.0491,1.0515,1.0505,1.0507,1.0511,1.0521,1.0522,1.0507,1.0491,1.0503,1.0496,1.0479,1.0503,1.0488,1.049,1.0509,1.0533,1.0536,1.0539,1.0573,1.058,1.0586,0,0,0,0,0,0,1.0525,1.0514,1.0503,1.0525,1.0524,1.0516,1.0529,1.0515,1.0519,1.0516,1.0498,1.0497,1.0519,1.0515,1.0498,1.0539,1.0515,1.0519,1.054,1.0547,1.0553,1.0553,1.0469,0,0,0,0,0,1.0535,1.0544,1.0534,1.0555,1.0555,1.0542,1.0546,1.0535,1.0534,1.0534,1.0528,1.0528,1.0536,1.0541,1.0547,1.0575,1.0574,1.0589,1.0594,1.0599,1.0603,1.0619,1.0626,1.055,1.055,1.055,0,0,1.0556,1.0551,1.0557,1.0561,1.056,1.057,1.0542,1.0554,1.0562,1.0536,1.0553,1.0549,1.0548,1.0571,1.0581,1.0569,1.0624,1.0603,1.0607,1.0608,1.0623,1.063,1.0636,1.0552,1.0552,1.0552,0,0,1.0599,1.0596,1.0613,1.0613,1.0611,1.0603,1.0607,1.0601,1.0598,1.0615,1.0596,1.0605,1.0618,1.0619,1.0621,1.0667,1.0652,1.0669,1.0699,1.0715,1.0721,1.0727,1.0745,1.0751,1.0673,1.0673,1.0673,0,1.0625,1.064,1.0624,1.0638,1.0641,1.0618,1.0637,1.0637,1.0637,1.064,1.0627,1.0644,1.0641,1.0666,1.0677,1.0679,1.0685,1.067,1.0722,1.0727,1.0731,1.0748,1.0755,1.0675,1.0675,1.0675,1.0675,0,1.0673,1.0684,1.0699,1.07,1.0705,1.0721,1.0709,1.0715,1.0705,1.0698,1.0717,1.0713,1.072,1.0724,1.0713,1.0748,1.0741,1.0725,1.0701,1.0741,1.0757,1.0763,1.0678,1.0678,1.0677,1.0676,0,0,1.0737,1.0731,1.0737,1.0738,1.0735,1.0744,1.0759,1.0766,1.0773,1.0774,1.0788,1.0801,1.0786,1.0789,1.0778,1.0792,1.0831,1.0774,1.0774,1.0786,1.0871,1.0884,1.0891,1.0821,1.0822,1.0823,1.0871,0,1.078,1.0806,1.0794,1.0822,1.0833,1.0812,1.0826,1.0827,1.0822,1.0831,1.0825,1.0835,1.0814,1.0816,1.0829,1.0824,1.0848,1.082,1.0835,1.0836,1.0837,1.0899,1.0912,1.0958,1.0877,1.0878,1.0879,0,1.0833,1.0838,1.0868,1.0865,1.0869,1.0882,1.0887,1.0896,1.0897,1.0892,1.0896,1.0883,1.0899,1.0875,1.0899,1.088,1.0885,1.0884,1.0885,1.0887,1.086,1.0904,1.0972,1.098,1.0888,1.0888,1.0887,0,1.0879,1.0892,1.0912,1.0914,1.091,1.092,1.092,1.0919,1.0924,1.093,1.0933,1.094,1.0944,1.0951,1.094,1.0923,1.0966,1.0941,1.0964,1.0964,1.0974,1.0974,1.1046,1.0976,1.0976,1.0976,1.0976,0,1.0929,1.0948,1.0933,1.0945,1.0967,1.0953,1.0975,1.0972,1.0972,1.0984,1.0966,1.0979,1.0963,1.0974,1.0966,1.0988,1.099,1.0987,1.0985,1.099,1.099,1.0994,1.0991,1.0978,1.0977,1.0977,1.0976,0,1.0983,1.0974,1.0994,1.099,1.099,1.1006,1.1003,1.1015,1.1009,1.1025,1.1028,1.1019,1.1031,1.1021,1.1033,1.1027,1.1057,1.1049,1.1057,1.1055,1.108,1.1078,1.1157,1.1167,1.109,1.1091,1.1091,0,1.1016,1.1031,1.1028,1.1035,1.1036,1.1047,1.1053,1.104,1.1047,1.105,1.1062,1.1073,1.1081,1.1101,1.1096,1.1106,1.1099,1.1126,1.1101,1.1105,1.1102,1.1101,1.1104,1.1132,1.1133,1.1134,1.1134,0,1.1076,1.1071,1.108,1.1088,1.1095,1.1101,1.1105,1.1112,1.1099,1.1108,1.112,1.1126,1.1139,1.1151,1.1159,1.1158,1.1145,1.1142,1.1149,1.1154,1.1158,1.1158,1.1072,1.1141,1.114,1.114,1.1139,1.1139,1.1121,1.1134,1.1135,1.1146,1.1148,1.1153,1.1165,1.1161,1.1171,1.1181,1.1172,1.1188,1.119,1.12,1.1202,1.1214,1.1203,1.1212,1.1214,1.1217,1.1221,1.1155,1.1215,1.1215,1.1215,1.1215,1.1215,0,1.1182,1.1182,1.1192,1.1199,1.1208,1.1195,1.1199,1.1208,1.1222,1.1225,1.1234,1.1249,1.1261,1.1257,1.1268,1.1279,1.1273,1.1282,1.1282,1.1283,1.1229,1.1224,1.1287,1.1287,1.1287,1.1287,1.1287,1.1287,1.1214,1.1236,1.1232,1.1255,1.1255,1.127,1.1274,1.1279,1.1282,1.13,1.1309,1.1307,1.1308,1.1319,1.133,1.1329,1.1334,1.1346,1.1343,1.1293,1.1286,1.1279,1.1274,1.1347,1.1347,1.1395,1.1395,1.1396]},{"header":{"parameterUnit":"m.s-1","parameterCategory":1,"la1":30.2991,"la2":30.254,"lo1":-89.0895,"lo2":-89.0444,"dy":0.0017,"dx":0.0017,"nx":28,"ny":28,"refTime":"2025-07-28T03:00:00:Z","depth":0,"parameterNumber":3,"parameterNumberName":"V-component_of_WINDS"},"data":[0,0,0,0,0,0,0,0,0,0,0,0,0,0,0,0,0,0,0,0,0,0,0,0,0,0,0,0,0,0,0,0,0,0,0,0,0,0,0,0,0,0,0,0,0,0,0,0,0,0,0,0,0,0,0,0,0,0,-3.7848,-3.7849,0,-3.7869,-3.7869,-3.7869,-3.7849,-3.7848,-3.7847,-3.7846,-3.7865,-3.7866,-3.7868,0,0,0,0,0,0,0,0,0,0,0,0,0,-3.7792,-3.7793,-3.7848,-3.7849,-3.7849,-3.7869,-3.7869,-3.7869,-3.7849,-3.7848,-3.7847,-3.7846,-3.7865,-3.7866,-3.7868,0,0,0,0,0,0,0,0,0,0,0,0,0,-3.7814,-3.7793,-3.7848,-3.7841,-3.7841,-3.7869,-3.7869,-3.7869,-3.7849,-3.7848,-3.7846,-3.7845,-3.7864,-3.7866,-3.7868,-3.7903,0,0,-3.7874,-3.7874,0,0,0,0,0,0,0,0,-3.7813,-3.7817,-3.7842,-3.7842,-3.7841,-3.7855,-3.7856,-3.7881,-3.7849,-3.7846,-3.7846,-3.7845,-3.7863,-3.7864,-3.7871,-3.7904,-3.7905,-3.7874,-3.7875,-3.7876,-3.7876,0,0,0,0,0,0,0,-3.7812,-3.7816,-3.7856,-3.7842,-3.7842,-3.7837,-3.7839,-3.7861,-3.7861,-3.7846,-3.7844,-3.7847,-3.7862,-3.7869,-3.7871,-3.7905,-3.7874,-3.7875,-3.7877,-3.7877,-3.7972,-3.7974,0,0,0,0,0,0,-3.7811,-3.7814,-3.7856,-3.7857,-3.7824,-3.7839,-3.7841,-3.7852,-3.786,-3.786,-3.7848,-3.7846,-3.7867,-3.7869,-3.7872,-3.7916,-3.7876,-3.7877,-3.7879,-3.7971,-3.7973,-3.7974,0,0,0,0,0,0,-3.781,-3.7815,-3.7855,-3.7835,-3.784,-3.7841,-3.7853,-3.7853,-3.786,-3.7862,-3.7862,-3.7855,-3.7866,-3.7869,-3.7897,-3.7917,-3.7878,-3.788,-3.7969,-3.7972,-3.7973,-3.8004,0,0,0,0,0,0,-3.7808,-3.7815,-3.7828,-3.7836,-3.7841,-3.7879,-3.7854,-3.7854,-3.7863,-3.7861,-3.7869,-3.7869,-3.7865,-3.7894,-3.7899,-3.7918,-3.7881,-3.7968,-3.797,-3.7973,-3.8001,-3.8007,-3.8012,0,0,0,0,0,-3.7806,-3.7834,-3.7829,-3.7834,-3.7858,-3.7881,-3.7884,-3.7879,-3.7865,-3.7879,-3.7881,-3.7869,-3.7914,-3.7897,-3.7902,-3.7923,-3.7966,-3.797,-3.7973,-3.7999,-3.8006,-3.8012,0,0,0,0,0,0,-3.7827,-3.7835,-3.7829,-3.786,-3.787,-3.7877,-3.7894,-3.7886,-3.7899,-3.7896,-3.789,-3.7892,-3.7921,-3.7924,-3.7906,-3.7959,-3.7938,-3.7942,-3.7956,-3.7963,-3.7968,-3.7967,-3.7883,0,0,0,0,0,-3.7836,-3.7854,-3.786,-3.7887,-3.7893,-3.7893,-3.7902,-3.7898,-3.7908,-3.7911,-3.7915,-3.7925,-3.7941,-3.7952,-3.7967,-3.8002,-3.8004,-3.8019,-3.8024,-3.8028,-3.8032,-3.8054,-3.8061,-3.7985,-3.7985,-3.7985,0,0,-3.7853,-3.786,-3.7871,-3.7892,-3.7899,-3.7918,-3.7896,-3.7916,-3.7931,-3.7914,-3.7941,-3.7945,-3.7955,-3.7987,-3.8001,-3.799,-3.8054,-3.8032,-3.8036,-3.8037,-3.8058,-3.8065,-3.8071,-3.7987,-3.7986,-3.7986,0,0,-3.7895,-3.7901,-3.7926,-3.7934,-3.7946,-3.7947,-3.7953,-3.7962,-3.7964,-3.7991,-3.798,-3.7997,-3.8024,-3.8033,-3.8041,-3.809,-3.808,-3.8095,-3.8122,-3.8143,-3.8149,-3.8155,-3.8174,-3.8181,-3.8098,-3.8098,-3.8098,0,-3.7915,-3.7944,-3.7939,-3.7962,-3.7972,-3.796,-3.7986,-3.7994,-3.8009,-3.8017,-3.8005,-3.8042,-3.8047,-3.8082,-3.8095,-3.8101,-3.8109,-3.8094,-3.8149,-3.8154,-3.8159,-3.8177,-3.8184,-3.81,-3.81,-3.81,-3.81,0,-3.7969,-3.7989,-3.8008,-3.8026,-3.8038,-3.8062,-3.8062,-3.8075,-3.807,-3.8072,-3.8102,-3.8108,-3.8126,-3.8134,-3.8129,-3.8169,-3.8163,-3.815,-3.8128,-3.8168,-3.8186,-3.8192,-3.8103,-3.8102,-3.8102,-3.8101,0,0,-3.8023,-3.804,-3.8047,-3.8057,-3.807,-3.8086,-3.811,-3.8129,-3.8141,-3.8152,-3.8174,-3.8199,-3.8188,-3.8197,-3.8193,-3.8212,-3.8253,-3.8197,-3.8197,-3.8209,-3.83,-3.8311,-3.8319,-3.8246,-3.8247,-3.8248,-3.83,0,-3.8067,-3.811,-3.8108,-3.8149,-3.8169,-3.8159,-3.818,-3.8191,-3.8194,-3.8212,-3.8214,-3.8234,-3.8217,-3.8223,-3.824,-3.8244,-3.8271,-3.824,-3.8267,-3.8268,-3.8266,-3.8328,-3.8339,-3.8387,-3.8307,-3.8308,-3.8309,0,-3.8123,-3.8139,-3.8183,-3.8196,-3.8204,-3.8224,-3.8242,-3.8259,-3.8272,-3.8273,-3.8285,-3.8279,-3.8304,-3.8282,-3.8318,-3.8297,-3.8308,-3.8311,-3.8313,-3.8316,-3.8291,-3.8334,-3.8402,-3.841,-3.8319,-3.8318,-3.8317,0,-3.8161,-3.8193,-3.8224,-3.8232,-3.8248,-3.8262,-3.8269,-3.8281,-3.8293,-3.8309,-3.8318,-3.8336,-3.8346,-3.836,-3.836,-3.8343,-3.8397,-3.8374,-3.84,-3.84,-3.8412,-3.8411,-3.8484,-3.8417,-3.8416,-3.8416,-3.8416,0,-3.8211,-3.8238,-3.8242,-3.8261,-3.8292,-3.829,-3.8321,-3.8326,-3.8337,-3.8358,-3.8349,-3.8368,-3.8366,-3.8386,-3.8385,-3.8416,-3.842,-3.8423,-3.8422,-3.8424,-3.8424,-3.8432,-3.8429,-3.8418,-3.8418,-3.8417,-3.8417,0,-3.8258,-3.8261,-3.8295,-3.8308,-3.8312,-3.8335,-3.8346,-3.8365,-3.8368,-3.8394,-3.84,-3.8405,-3.8428,-3.8429,-3.8455,-3.8455,-3.8493,-3.8488,-3.849,-3.8489,-3.8516,-3.8514,-3.8597,-3.8609,-3.8532,-3.8533,-3.8533,0,-3.829,-3.8311,-3.8328,-3.8342,-3.8351,-3.8373,-3.8386,-3.8386,-3.84,-3.8418,-3.8435,-3.8457,-3.8476,-3.8513,-3.8519,-3.8539,-3.8535,-3.8563,-3.8538,-3.8541,-3.8538,-3.8538,-3.8541,-3.8568,-3.8569,-3.857,-3.857,0,-3.8347,-3.8349,-3.8369,-3.8391,-3.8408,-3.8424,-3.844,-3.8452,-3.8453,-3.847,-3.8495,-3.8509,-3.8537,-3.856,-3.858,-3.8587,-3.858,-3.8578,-3.8586,-3.8588,-3.8589,-3.8591,-3.8505,-3.8576,-3.8576,-3.8575,-3.8575,-3.8575,-3.8389,-3.8409,-3.8425,-3.8448,-3.8461,-3.8476,-3.8496,-3.8502,-3.8523,-3.8547,-3.8545,-3.8573,-3.8587,-3.8614,-3.8624,-3.8645,-3.8636,-3.8646,-3.8649,-3.8652,-3.8656,-3.8585,-3.8649,-3.8649,-3.8648,-3.8648,-3.8648,0,-3.8448,-3.8459,-3.848,-3.8504,-3.8523,-3.8516,-3.8533,-3.855,-3.8575,-3.8589,-3.8608,-3.8638,-3.8661,-3.8669,-3.8692,-3.8708,-3.8705,-3.8714,-3.8714,-3.8716,-3.8662,-3.8654,-3.8716,-3.8716,-3.8716,-3.8716,-3.8716,-3.8716,-3.8481,-3.8515,-3.8519,-3.8559,-3.8569,-3.8598,-3.8609,-3.8624,-3.8636,-3.867,-3.869,-3.8696,-3.8709,-3.8733,-3.8754,-3.8756,-3.8765,-3.8776,-3.8777,-3.8726,-3.8719,-3.8713,-3.8706,-3.8778,-3.8778,-3.8829,-3.883,-3.883]}]]